Вернуться в каталог

COSMOS 886 DEB

АктивенUNKNOWN
NORAD 14799·DEBRIS·🇷🇺 Russia

Запущен Dec 27, 1976 с Baikonur Cosmodrome

Loading…

Ближайшие Пролёты (ближайшие 24 часа)

TLE

СвежийSource: Space-Track

Эпоха: Sep 14, 2026, 00:29 UTC

1 14799U 76126BR  26257.02035926  .00000037  00000-0  54347-3 0  9997
2 14799  65.8082 107.6315 0880647  13.7732 134.8443 11.69570083830480

Отслеживайте COSMOS 886 DEB в реальном времени с AllMySat

Download on the App Store